Wind_Speed
25 27 28 20 10 21 21 34 33 28 25 25 24 25 23 19 20 19 22 22 24 22 21 22 21 20 18 17 16 15 13 11 10 11 11 11 8 8 8 8 7 6 5
25 25 26 23 10 4 24 33 35 24 25 24 24 25 22 21 22 23 25 24 25 25 23 24 24 23 21 19 19 17 17 16 16 14 13 12 11 10 9 9 7 6 7
23 22 21 21 20 12 5 15 13 18 22 26 27 27 25 24 23 25 25 26 27 25 23 27 24 24 24 22 22 21 21 20 21 18 17 15 14 12 10 11 9 8 8
21 21 18 15 16 17 15 9 5 5 15 16 29 33 26 22 23 26 30 26 23 25 23 24 24 25 25 24 23 26 25 28 23 23 19 17 14 14 12 11 11 9 9
19 19 17 15 14 12 10 12 13 14 13 15 11 11 8 12 20 28 32 28 25 25 24 26 28 28 27 27 25 27 26 24 24 22 19 17 19 17 15 13 12 12 13
23 21 21 20 17 17 16 15 15 16 15 14 15 15 14 14 15 19 28 32 33 26 26 27 25 28 30 29 27 27 27 28 27 25 22 19 18 18 17 16 15 14 14
27 27 25 23 21 21 19 19 19 19 19 17 18 16 16 16 16 17 19 21 25 28 31 31 30 31 34 33 32 33 29 28 30 28 26 24 23 22 21 19 19 17 17
29 29 27 27 26 24 23 23 23 23 22 22 20 20 19 20 19 19 17 12 19 24 31 36 35 35 34 35 36 33 30 30 29 28 29 27 28 24 23 22 22 21 22
29 28 28 27 25 26 26 26 25 26 27 27 27 27 25 24 22 22 21 20 20 21 20 28 32 39 34 34 38 37 33 35 33 33 33 31 30 27 25 25 25 24 24
31 30 27 26 29 30 29 29 29 29 28 28 29 29 29 29 28 27 26 24 25 25 23 18 18 21 30 41 43 40 39 39 39 37 35 33 31 29 27 28 28 27 25
33 32 30 29 28 28 29 29 29 30 30 31 31 32 34 34 33 30 32 29 29 27 27 28 27 29 29 30 36 42 43 45 41 39 34 34 31 30 32 31 31 27 26
34 34 33 31 31 31 30 30 30 30 29 31 34 35 35 35 34 33 35 34 33 31 30 31 32 31 35 32 32 32 38 40 43 40 37 37 35 31 34 32 32 28 26
35 35 36 34 33 33 33 34 34 35 36 36 36 36 37 39 38 37 37 34 35 35 35 34 34 37 36 38 33 33 38 41 38 40 40 43 37 37 35 34 32 29 28
38 38 37 36 35 36 36 36 37 38 40 41 42 42 42 42 41 41 33 33 35 36 38 38 36 38 41 40 38 35 37 39 41 41 42 42 38 41 39 35 33 32 29
39 39 38 38 37 37 38 39 39 39 40 41 42 43 43 42 43 40 37 34 36 38 40 42 40 41 42 40 39 36 40 38 44 42 45 41 45 42 42 37 34 33 30
41 39 38 38 39 40 41 41 41 40 40 41 42 43 42 44 43 43 40 38 36 38 42 45 45 44 42 41 43 40 40 41 44 43 42 46 44 44 43 38 36 34 30
41 39 41 41 42 43 43 44 44 42 42 42 42 43 44 42 42 42 41 40 39 38 40 46 49 48 44 41 39 43 44 44 46 50 42 48 50 48 43 39 37 34 30
42 42 43 43 44 45 45 45 45 45 44 42 43 43 43 44 43 43 43 43 41 41 40 41 49 50 46 43 41 46 43 41 40 40 45 45 46 46 41 38 36 31 30
42 43 44 46 48 47 46 45 44 44 46 46 45 45 45 42 42 43 43 40 39 42 44 39 46 49 47 43 40 43 40 41 37 34 38 41 42 41 38 35 33 31 32
44 46 45 45 44 44 44 43 44 46 48 47 46 46 45 43 41 40 43 44 43 42 45 41 42 47 47 48 41 39 38 36 36 31 37 38 34 33 33 34 30 28 30
45 45 45 46 46 46 46 48 46 46 46 46 45 44 43 42 40 39 40 41 43 43 44 42 42 44 43 47 45 36 36 39 33 33 36 34 37 36 41 39 33 29 31
46 46 46 47 47 47 46 47 45 45 42 41 42 42 41 41 38 40 40 42 40 41 42 41 41 41 39 42 42 35 31 34 32 33 38 37 36 29 30 32 30 29 27
47 46 45 45 44 44 44 43 42 42 39 37 37 37 38 37 36 36 38 40 39 39 40 40 41 37 35 37 37 34 32 32 33 42 28 27 22 22 23 25 30 25 25
50 48 45 43 42 42 42 41 39 36 35 34 34 34 35 35 34 34 35 35 38 39 38 38 37 35 31 31 36 32 33 30 30 28 27 28 24 23 23 21 22 21 15
42 41 39 39 37 35 34 33 31 31 31 31 31 33 32 32 33 31 33 27 32 34 34 34 34 30 29 29 33 32 31 32 30 28 26 26 28 31 29 27 27 21 16
37 35 33 32 32 30 28 27 28 28 27 27 29 29 28 28 29 28 30 31 32 32 32 32 31 28 26 28 31 34 32 32 32 32 29 27 26 26 29 30 29 26 24
Wind_Direction
342 344 342 353 251 209 234 218 212 223 234 244 250 260 258 263 268 272 272 263 255 248 243 246 250 256 262 268 276 274 279 272 262 274 271 277 273 276 289 303 319 318 316
337 343 352 342 353 328 214 209 214 217 238 242 249 255 257 263 265 265 267 269 261 254 247 245 248 252 259 261 270 266 266 268 262 269 269 270 270 271 279 285 285 290 292
332 335 343 345 347 11 253 216 221 226 243 248 251 250 255 261 267 266 264 268 261 255 250 246 245 253 258 261 261 262 265 260 261 261 259 260 264 265 264 267 272 281 281
326 327 326 331 334 336 340 330 313 296 253 264 254 260 253 257 266 268 269 266 265 256 255 254 254 256 257 263 262 265 270 272 258 254 248 254 257 257 256 257 264 270 274
321 317 320 313 308 306 304 297 288 287 292 297 302 277 279 268 286 272 272 263 257 260 256 249 244 251 258 263 267 268 268 272 269 264 253 246 247 252 251 255 258 263 274
308 305 304 306 306 300 294 289 290 291 296 297 297 306 317 292 308 303 289 260 252 249 253 256 251 246 252 254 254 255 266 268 266 266 258 246 252 260 259 261 264 269 274
307 302 299 298 296 294 292 293 295 294 294 294 297 298 297 297 303 301 317 277 257 255 258 254 254 254 248 246 246 250 254 258 266 268 246 252 260 260 258 259 263 267 272
304 303 302 299 297 293 289 289 289 291 294 295 294 292 294 293 296 295 302 290 276 291 261 260 256 256 258 254 250 249 250 249 251 254 250 252 257 260 259 261 266 271 276
309 306 303 301 297 294 293 290 288 288 290 292 291 292 291 291 290 288 287 284 282 278 277 268 260 250 250 256 256 253 250 245 248 242 248 250 254 253 255 258 263 271 276
311 308 304 298 295 295 293 292 290 288 284 283 284 285 287 289 287 282 278 276 274 276 275 267 265 253 253 253 256 256 257 251 243 243 242 247 251 252 252 254 259 265 273
307 308 305 300 296 292 291 289 289 290 290 290 287 284 284 283 283 286 282 274 269 271 269 271 269 250 262 254 252 254 255 254 249 246 251 243 245 249 252 251 256 263 269
302 303 303 297 294 294 293 291 290 288 288 288 286 285 283 280 282 282 281 279 272 263 263 260 264 265 256 255 253 250 240 248 243 245 249 253 243 242 248 249 257 262 268
298 297 297 294 290 291 292 293 294 293 292 291 287 286 287 287 284 281 278 274 269 262 256 256 251 257 252 250 253 251 238 241 245 246 247 248 251 240 245 246 253 257 264
294 293 290 290 290 290 289 289 288 288 289 290 289 288 287 286 284 281 275 270 263 257 254 251 247 245 249 253 248 248 244 245 246 248 249 252 248 243 240 243 247 253 258
290 288 286 287 287 287 287 286 284 285 286 284 285 285 285 284 282 281 278 268 264 257 250 249 245 242 245 251 244 237 234 234 245 247 247 249 256 250 236 238 243 250 256
288 285 283 284 285 286 286 286 287 288 288 287 286 283 280 280 280 278 274 268 268 258 251 246 246 244 245 246 241 239 235 236 242 240 243 252 250 256 237 232 239 247 254
285 281 282 282 284 286 286 288 288 290 289 284 282 278 276 279 277 273 271 269 267 265 261 248 247 247 246 245 244 239 245 243 251 244 239 245 249 244 230 228 236 244 252
283 282 283 282 284 286 286 287 288 288 288 283 278 276 277 278 273 269 267 266 266 264 264 257 248 252 251 247 245 244 245 243 247 245 246 248 241 230 229 231 236 245 255
281 282 281 282 284 285 285 285 286 286 287 282 279 273 273 278 272 266 264 264 262 262 263 262 255 253 252 252 247 245 256 256 246 245 238 230 227 228 231 233 240 249 260
283 284 284 282 283 284 284 284 285 285 285 281 278 276 271 273 272 268 262 259 259 262 264 262 260 255 253 253 253 249 252 257 252 233 234 227 228 234 238 246 254 260 268
287 286 285 285 285 285 285 285 285 284 283 279 276 275 275 271 269 265 261 258 255 256 260 261 262 256 252 252 254 254 247 251 258 245 220 225 230 239 243 249 248 259 269
288 287 286 286 286 285 285 284 282 286 283 278 276 274 273 271 269 263 258 255 255 253 257 257 259 256 250 250 252 252 250 248 248 250 227 228 235 230 241 238 257 263 262
287 286 286 283 283 284 283 282 283 283 281 278 276 273 273 270 268 264 259 253 253 252 256 253 256 255 248 247 249 250 249 247 249 251 251 237 242 246 259 265 260 251 257
286 284 284 284 285 283 281 281 281 281 281 279 275 274 271 268 265 262 260 258 254 253 254 249 251 252 247 241 243 243 245 244 244 241 239 236 241 228 248 250 246 250 266
288 286 284 284 285 283 280 279 278 279 277 278 279 280 273 265 261 259 256 249 258 253 249 244 250 249 243 237 240 241 239 242 243 242 234 237 239 240 241 246 266 297 272
290 288 285 283 283 281 279 278 278 277 277 281 281 280 273 265 259 257 255 254 253 248 241 243 250 247 237 234 234 238 236 240 237 238 237 234 236 237 244 249 260 263 262
Height
5874 5867 5860 5854 5849 5848 5855 5856 5860 5868 5873 5877 5879 5882 5883 5884 5884 5884 5885 5886 5885 5884 5887 5889 5890 5891 5891 5892 5893 5893 5892 5893 5893 5894 5894 5893 5892 5891 5891 5891 5891 5891 5890
5873 5867 5861 5857 5854 5852 5852 5854 5857 5864 5871 5872 5874 5876 5877 5878 5879 5879 5880 5881 5881 5881 5881 5882 5885 5887 5888 5888 5889 5889 5888 5889 5889 5889 5890 5890 5889 5888 5888 5888 5889 5889 5888
5871 5868 5864 5859 5858 5857 5857 5859 5860 5863 5865 5867 5868 5868 5869 5870 5872 5873 5874 5874 5874 5874 5874 5875 5877 5881 5882 5884 5884 5885 5884 5885 5885 5885 5886 5886 5886 5886 5886 5886 5886 5887 5886
5870 5867 5866 5863 5860 5859 5858 5859 5859 5860 5862 5863 5861 5861 5861 5861 5863 5866 5868 5868 5868 5870 5870 5872 5873 5875 5877 5878 5880 5880 5879 5878 5878 5878 5879 5881 5882 5882 5882 5883 5883 5883 5883
5867 5866 5864 5863 5861 5860 5860 5860 5860 5859 5858 5856 5854 5853 5849 5854 5856 5857 5858 5859 5860 5863 5864 5866 5867 5869 5871 5873 5874 5873 5874 5874 5871 5873 5872 5874 5877 5878 5878 5879 5879 5880 5879
5862 5862 5860 5858 5858 5856 5855 5854 5854 5853 5853 5851 5850 5848 5848 5848 5849 5849 5847 5848 5853 5855 5856 5857 5859 5860 5861 5863 5865 5867 5868 5868 5868 5870 5870 5870 5871 5873 5874 5874 5874 5874 5875
5855 5853 5853 5852 5852 5851 5850 5849 5847 5847 5846 5846 5846 5845 5844 5844 5845 5845 5842 5841 5844 5847 5849 5849 5850 5852 5853 5854 5856 5857 5859 5861 5862 5865 5866 5865 5866 5867 5868 5868 5868 5868 5868
5850 5847 5846 5845 5844 5844 5844 5844 5843 5841 5840 5840 5839 5839 5839 5839 5839 5839 5837 5837 5838 5839 5839 5841 5843 5844 5846 5848 5848 5851 5852 5852 5854 5857 5859 5860 5860 5861 5862 5863 5863 5862 5862
5845 5843 5840 5839 5838 5837 5836 5836 5836 5835 5835 5833 5833 5832 5832 5832 5833 5833 5832 5832 5834 5833 5830 5831 5832 5833 5835 5838 5840 5843 5843 5844 5847 5848 5850 5852 5854 5855 5855 5856 5857 5857 5857
5838 5836 5834 5833 5831 5830 5829 5828 5828 5828 5828 5826 5826 5825 5826 5826 5826 5826 5826 5826 5826 5825 5824 5824 5823 5825 5825 5826 5828 5830 5834 5835 5837 5839 5842 5844 5846 5849 5849 5849 5850 5851 5851
5832 5830 5827 5825 5824 5823 5821 5820 5819 5818 5817 5815 5815 5815 5816 5816 5816 5817 5816 5817 5817 5817 5816 5815 5815 5816 5817 5817 5817 5820 5823 5823 5827 5828 5831 5835 5837 5841 5842 5842 5843 5844 5845
5825 5822 5820 5818 5816 5814 5813 5811 5811 5810 5809 5808 5806 5806 5806 5806 5806 5806 5805 5805 5805 5807 5806 5806 5807 5808 5807 5807 5808 5811 5813 5814 5817 5821 5823 5824 5828 5831 5833 5836 5836 5837 5837
5817 5814 5811 5809 5807 5806 5803 5802 5800 5798 5798 5797 5796 5795 5794 5793 5794 5794 5793 5793 5793 5795 5795 5796 5797 5798 5798 5798 5800 5801 5803 5805 5809 5811 5814 5816 5818 5822 5824 5827 5830 5830 5830
5807 5804 5802 5800 5798 5796 5795 5793 5791 5789 5788 5786 5784 5783 5782 5781 5781 5780 5783 5782 5780 5781 5782 5784 5785 5786 5787 5788 5789 5791 5793 5796 5798 5802 5803 5805 5808 5813 5814 5818 5821 5822 5823
5798 5795 5792 5789 5787 5786 5784 5782 5781 5780 5778 5776 5773 5771 5769 5769 5767 5768 5767 5769 5768 5769 5770 5770 5772 5773 5775 5777 5779 5780 5783 5784 5787 5790 5793 5795 5797 5800 5803 5807 5811 5813 5814
5786 5783 5781 5779 5776 5774 5772 5771 5769 5768 5765 5763 5761 5759 5758 5757 5756 5754 5755 5755 5755 5756 5757 5758 5759 5760 5762 5765 5767 5769 5771 5774 5777 5778 5781 5784 5786 5789 5792 5796 5800 5804 5805
5773 5772 5769 5767 5765 5763 5760 5758 5756 5754 5752 5750 5748 5746 5744 5744 5743 5742 5741 5742 5741 5742 5743 5744 5745 5747 5749 5752 5755 5757 5760 5763 5763 5766 5769 5771 5774 5776 5780 5785 5790 5794 5796
5761 5759 5757 5755 5753 5750 5747 5745 5742 5740 5739 5737 5735 5733 5731 5730 5729 5729 5730 5729 5730 5729 5730 5732 5733 5735 5738 5740 5743 5746 5748 5750 5752 5755 5757 5759 5762 5766 5770 5775 5780 5784 5785
5750 5747 5745 5742 5739 5737 5734 5732 5729 5727 5724 5722 5720 5718 5717 5716 5715 5714 5716 5717 5717 5717 5718 5720 5721 5724 5726 5728 5731 5734 5738 5739 5741 5742 5745 5748 5753 5757 5761 5766 5769 5772 5774
5736 5734 5731 5728 5725 5723 5721 5718 5716 5713 5710 5706 5704 5702 5702 5702 5701 5701 5701 5703 5705 5706 5705 5708 5710 5712 5715 5717 5720 5724 5728 5731 5731 5734 5738 5742 5745 5749 5752 5756 5760 5762 5764
5721 5719 5716 5713 5711 5708 5706 5703 5700 5698 5695 5692 5690 5688 5686 5687 5686 5686 5687 5689 5692 5693 5694 5696 5698 5700 5704 5707 5711 5715 5719 5721 5723 5726 5729 5733 5737 5741 5744 5747 5750 5752 5753
5707 5704 5701 5699 5696 5693 5690 5687 5685 5682 5679 5677 5675 5673 5672 5672 5672 5672 5673 5675 5678 5680 5682 5684 5686 5688 5693 5697 5702 5707 5711 5713 5716 5718 5720 5724 5729 5732 5735 5738 5739 5741 5742
5692 5688 5686 5683 5681 5678 5675 5672 5670 5667 5665 5663 5662 5661 5660 5660 5659 5659 5659 5662 5665 5668 5670 5672 5674 5677 5682 5687 5693 5698 5702 5707 5707 5710 5713 5715 5719 5723 5725 5728 5730 5732 5734
5675 5672 5670 5668 5665 5662 5660 5658 5656 5654 5652 5651 5650 5649 5648 5647 5648 5648 5649 5651 5653 5656 5658 5661 5665 5668 5672 5677 5682 5688 5692 5697 5700 5703 5705 5710 5711 5711 5718 5721 5722 5723 5727
5660 5657 5655 5653 5650 5648 5646 5645 5644 5643 5641 5640 5638 5637 5636 5636 5636 5638 5640 5642 5642 5646 5648 5652 5655 5659 5663 5669 5674 5679 5685 5688 5692 5695 5698 5701 5705 5708 5712 5715 5713 5716 5721
5646 5643 5641 5640 5638 5636 5636 5635 5634 5633 5631 5630 5628 5627 5625 5625 5626 5629 5630 5632 5634 5636 5640 5644 5647 5651 5655 5660 5666 5671 5677 5682 5684 5687 5690 5694 5697 5701 5704 5706 5709 5712 5714